Hourly Weather Roundup
Issued by NWS Central Illinois

Home | Current Version | Previous Version | Text Only | Print | Product List | Glossary On
Versions: 1 2 3 4 5 6 7 8 9 10 11 12 13 14 15 16 17 18 19 20 21 22 23 24 25 26 27 28 29 30 31 32 33 34 35 36 37 38 39 40 41 42 43 44 45 46 47 48 49 50
000
NZUS43 KILX 232210
HWRILX

AREA WEATHER ROUNDUP
NATIONAL WEATHER SERVICE, LINCOLN IL
500 PM CDT SAT JUL 23 2016


CITY           SKY/WX    TMP DP  RH WIND       PRES   REMARKS
BLOOMINGTON    CLOUDY    88  78  72 S12       29.96  HX 101
CHAMPAIGN      MOSUNNY   87  77  72 S6        29.96F HX  99
DANVILLE       MOSUNNY   85  79  80 CALM      29.93F HX  98
DECATUR        SUNNY     90  76  63 S13       29.94F HX 101
EFFINGHAM      SUNNY     90  77  65 SE6       29.96F HX 102
FLORA          SUNNY     91  77  64 SE5       29.94F HX 104
GALESBURG      PTSUNNY   88  79  74 SE6       29.93R HX 102
JACKSONVILLE   SUNNY     90  79  70 SE8       29.92S HX 104
LACON          CLOUDY    88  76  67 S6        29.93R HX  99
LAWRENCEVILLE  SUNNY     89  76  65 S5        29.94F HX 100
LITCHFIELD     SUNNY     89  75  63 SE7       29.94F HX 100
$$


CITY           SKY/WX    TMP DP  RH WIND       PRES   REMARKS
LINCOLN        MOSUNNY   90  78  67 S6        29.93S HX 105
MACOMB         PTSUNNY   89  80  74 S7        29.94R HX 107
MATTOON        MOSUNNY   88  75  65 VRB6      29.94F HX  97
MT CARMEL AP   SUNNY     89  75  64 CALM      29.95F HX  99
OLNEY-NOBLE AP SUNNY     90  77  66 CALM      29.95F HX 102
PARIS          SUNNY     87  78  72 CALM      29.96F HX 100
PEORIA         PTSUNNY   90  78  68 S12       29.92F HX 104
PONTIAC        CLOUDY    89  80  74 S5        29.95R HX 105
RANTOUL        NOT AVBL
ROBINSON       NOT AVBL
SPRINGFIELD    SUNNY     91  77  63 S9        29.93F HX 104
TAYLORVILLE    SUNNY     88  77  69 N8        29.93F HX 100
$$

...REGIONAL REPORTS...


CITY           SKY/WX    TMP DP  RH WIND       PRES   REMARKS
CHICAGO O`HARE CLOUDY    89  74  60 S6        29.93R HX  98
KANKAKEE       NOT AVBL
MOLINE         CLOUDY    90  80  72 SE10      29.89S HX 107
MOUNT STERLING MOSUNNY   90  80  73 S9        29.91S HX 106
MOUNT VERNON   MOSUNNY   93  75  55 SE5       29.94F HX 104
PITTSFIELD     SUNNY     91  82  75 SE8       29.92F HX 111
QUINCY         CLOUDY    92  79  65 S9        29.90S HX 108
ROCKFORD       TSTM      78  72  81 E9        29.96R HX  80
$$


CITY           SKY/WX    TMP DP  RH WIND       PRES   REMARKS
BURLINGTON     CLOUDY    92  81  70 S9        29.90R HX 112
CEDAR RAPIDS   LGT RAIN  86  82  88 NE3       29.89R HX 104
DES MOINES     PTSUNNY   92  79  65 S14       29.82S HX 108
KIRKSVILLE     CLOUDY    93  74  53 S15       29.91S HX 103
OTTUMWA        CLOUDY    86  77  74 S6        29.86R HX  97
ST LOUIS       MOSUNNY   95  72  47 VRB7      29.92F HX 103
$$


CITY           SKY/WX    TMP DP  RH WIND       PRES   REMARKS
TERRE HAUTE    MOSUNNY   89  74  60 SE5       29.95F HX  98
EVANSVILLE     MOSUNNY   91  76  61 NE5       29.93F HX 103
INDIANAPOLIS   PTSUNNY   89  72  56 SW7       29.96F HX  96
LAFAYETTE      MOSUNNY   87  76  69 VRB6      29.94F HX  97
MADISON        LGT RAIN  73  70  90 SE3       29.94F
MILWAUKEE      TSTM      77  70  79 W7        29.99R
$$






USA.gov is the U.S. government's official web portal to all federal, state and local government web resources and services.